Sign In / Sign Up
 
 
Falling Leaves Regatta. Leg 1. 17/10 - 23/10



Race Date (UTC) # I place II place III place Track
Race8453 2016-10-23 17:18:02 8 star6546 ALICE Inutil
Race8451 2016-10-23 17:15:35 8 Cadu SailAlong Widget 107
Race8450 2016-10-23 17:15:06 8 La GattaGnuda Ja oby
Race8449 2016-10-23 17:14:46 8 Munnezz Isabelle phez
Race8448 2016-10-23 17:13:42 8 Ki pisa56 ita58
Race8447 2016-10-23 17:13:07 8 ge614 one corsaire
Race8446 2016-10-23 17:12:26 8 Homeless Le Pacha .
Race8445 2016-10-23 17:11:40 8 testadikazzo ALICE ELIOTLUCAS-2
Race8444 2016-10-23 17:10:44 8 Perfect Circle skol ichimokusan
Race8443 2016-10-23 17:09:10 8 Lion313 Widget 107 star6546
Race8442 2016-10-23 17:08:40 8 КОТША billo baccani youppi03:50:40
Race8441 2016-10-23 17:07:46 8 La GattaGnuda Munnezz La Rossa ITA 174
Race8440 2016-10-23 17:06:38 8 ge614 Aprile ita58
Race8439 2016-10-23 17:05:27 8 . Homeless Benjamin
Race8438 2016-10-23 17:04:28 8 ITA 1848 Torsa testadikazzo
Race8437 2016-10-23 17:03:46 8 nemesis orion ichimokusan
Race8436 2016-10-23 17:02:26 8 skol Kalua Lucona
Race8435 2016-10-23 17:01:37 8 ELIOTLUCAS-5 youppi03:50:40 Perfect Circle
Race8434 2016-10-23 17:00:45 8 Munnezz Ja pisa56
Race8433 2016-10-23 16:59:41 8 La GattaGnuda riccetto hugggster
Race8432 2016-10-23 16:58:10 8 10&lode Homeless Isabelle
Race8431 2016-10-23 16:57:19 8 RCLaser27 billo baccani GAMA
Race8430 2016-10-23 16:56:43 8 veron Star corsaire
Race8429 2016-10-23 16:55:37 8 Torsa Kalua scica
Race8428 2016-10-23 16:54:47 8 Moses Perfect Circle SPINOUT
Race8427 2016-10-23 16:53:50 8 Mateo Munnezz youppi03:50:40
Race8426 2016-10-23 16:53:14 8 Тучка Stella dell'Est boqueron
Race8425 2016-10-23 16:51:58 8 La GattaGnuda Isabelle Klaus
Race8424 2016-10-23 16:51:18 8 ge614 piro lita La Perla Nera
Race8423 2016-10-23 16:50:15 8 ELIOTLUCAS-5 CAVU - USA GAMA
Race8422 2016-10-23 16:49:41 8 katana2 veron RCLaser27
Race8421 2016-10-23 16:48:53 8 CZE284 Lucona Torsa
Race8420 2016-10-23 16:47:27 8 Annariina SPINOUT Munnezz
Race8419 2016-10-23 16:45:52 8 youppi03:50:40 4'06,30'' comadreja
Race8418 2016-10-23 16:44:27 8 La Perla Nera Тучка WildOatsXI
Race8417 2016-10-23 16:43:25 8 MED ita33007 Toscana
Race8416 2016-10-23 16:43:10 8 boqueron katana2 corsaire
Race8415 2016-10-23 16:41:55 8 Lucona veron follow me
Race8414 2016-10-23 16:41:27 8 La GattaGnuda . GAMA
Race8413 2016-10-23 16:41:11 8 Annariina kazike Elena
Race8412 2016-10-23 16:40:01 8 RCLaser27 Munnezz sunseeker
Race8411 2016-10-23 16:38:47 8 Corto Maltese Chimere 76
Race8410 2016-10-23 16:37:10 8 federico La Perla Nera Тучка
Race8409 2016-10-23 16:36:25 8 boqueron katana2 looseleech
Race8408 2016-10-23 16:35:09 8 casinista follow me corsaire
Race8407 2016-10-23 16:34:30 8 La GattaGnuda Honys WildOatsXI
Race8406 2016-10-23 16:32:56 8 ge614 veron Annariina
Race8405 2016-10-23 16:31:40 8 La Perla Nera piro lita 4'06,30''
Race8404 2016-10-23 16:30:40 8 GAMA ELIOTLUCAS-5 JULEPE
Race8403 2016-10-23 16:29:21 8 MED boqueron ichimokusan
Race8402 2016-10-23 16:28:43 8 Klaus Rider56 casinista
Race8401 2016-10-23 16:28:05 8 BABA22 Собака Atalanta
Race8400 2016-10-23 16:27:05 8 Twins La GattaGnuda .
Race8399 2016-10-23 16:25:58 2 Follow Me Feten Zia
Race8398 2016-10-23 16:24:24 8 Annariina RCLaser27 La Perla Nera
Race8397 2016-10-23 16:23:26 8 JULEPE cassiopea Opti920
Race8396 2016-10-23 16:22:27 8 Rider56 tableau arrière Taylor
Race8395 2016-10-23 16:21:58 8 rat des mers MIKE Toscana
Race8394 2016-10-23 16:21:19 8 ELIOTLUCAS-5 Distraction Scirocco
Race8393 2016-10-23 16:21:08 8 La GattaGnuda ku1z3en .
Race8392 2016-10-23 16:20:05 5 ichimokusan WeRThWrld Marwin
Race8391 2016-10-23 16:19:54 8 Lupina hydargos Homeless
Race8390 2016-10-23 16:19:24 8 ge614 Follow Me ita58
Race8389 2016-10-23 16:18:51 8 RCLaser27 yagmursivrikaya dew
Race8388 2016-10-23 16:17:30 8 Anjuta JSCano500 corsaire
Race8387 2016-10-23 16:16:33 8 BABA22 76 cassiopea
Race8386 2016-10-23 16:15:32 8 orion juveMERDA penkalet
Race8385 2016-10-23 16:15:02 8 MIKE B-one Dream
Race8384 2016-10-23 16:14:05 8 J122 casinista Twins
Race8383 2016-10-23 16:13:33 8 Atalanta ku1z3en Собака
Race8382 2016-10-23 16:12:37 8 La GattaGnuda ITA 1848 ichimokusan
Race8381 2016-10-23 16:12:22 8 Follow Me FANCULO GAMA
Race8380 2016-10-23 16:11:35 8 Over Early ELIOTLUCAS-5 dew
Race8379 2016-10-23 16:10:07 8 Homeless corsaire Rick
Race8378 2016-10-23 16:09:03 3 penkalet AccordDigital ita 8526
Race8377 2016-10-23 16:08:05 8 cassiopea JSCano500 juveMERDA
Race8376 2016-10-23 16:07:04 8 eolo Twins Brazil_1
Race8375 2016-10-23 16:06:13 8 ~Excellent ku1z3en Atalanta
Race8374 2016-10-23 16:05:41 8 10&lode FANCULO ichimokusan
Race8373 2016-10-23 16:04:36 8 Toscana CZE284 one
Race8372 2016-10-23 16:04:13 8 Pacaypalla dew ELIOTLUCAS-5
Race8371 2016-10-23 16:03:20 8 Klaus Rick Marwin
Race8370 2016-10-23 16:02:43 8 La Perla Nera GAMA Homeless
Race8369 2016-10-23 16:01:51 8 veron Paat plamolon
Race8368 2016-10-23 16:00:50 8 ruspaXte Y.C. Tempio Pausania silviom
Race8367 2016-10-23 15:59:04 8 MIKE Twins ciao
Race8366 2016-10-23 15:58:42 8 ~Excellent Собака Atalanta
Race8365 2016-10-23 15:57:45 8 one Toscana Follow Me
Race8364 2016-10-23 15:57:36 8 dew corsaire AccordDigital
Race8363 2016-10-23 15:57:13 8 Arthur naza.rokoko Kokrocz
Race8362 2016-10-23 15:56:32 8 La Perla Nera INTONS Klaus
Race8361 2016-10-23 15:55:19 8 penkalet ichimokusan GAMA
Race8360 2016-10-23 15:54:46 8 ruspaXte ELIOTLUCAS-5 Philou
Race8359 2016-10-23 15:54:12 8 Twins GBReq kazike
Race8358 2016-10-23 15:53:01 8 ITA 77 silviom Blue Jacket
Race8357 2016-10-23 15:52:03 8 Rocinante 1183 barba_br Erotica
Race8356 2016-10-23 15:50:47 8 Stugots one Follow Me
Race8355 2016-10-23 15:50:16 8 Иван UKR 203363 Jaywalker
Race8354 2016-10-23 15:50:01 8 kate koll La Perla Nera Wind
Race8353 2016-10-23 15:48:57 8 INTONS SailAlong Kokrocz